Milton, FL

9:24 AM CST on December 10, 2016 (GMT -0600)
Whiting Field Naval Air Station (North)

Weather History for KNSE - September, 2012

Change the Weather History Date:

Monday, September 24, 2012

  Actual Average Record
Temperature  
Mean Temperature 74 °F -  
Max Temperature 84 °F 81 °F 95 °F (2016)
Min Temperature 61 °F 65 °F 61 °F (2008)
Cooling Degree Days 8    
Growing Degree Days 24 (Base 50)    
Moisture  
Dew Point 59 °F    
Average Humidity 67    
Maximum Humidity 93    
Minimum Humidity 41    
Precipitation  
Precipitation 0.00 in - - ()
Sea Level Pressure  
Sea Level Pressure 30.10 in    
Wind  
Wind Speed 3 mph (North)    
Max Wind Speed 7 mph    
Max Gust Speed -    
Visibility 10 miles    
Events      
Averages and records for this station are not official NWS values.
T = Trace of Precipitation, MM = Missing Value Source: NWS Daily Summary

Daily Weather History Graph

Daily Weather History Graph

Search for Another Location

Airport or City:

Trip Planner

Search our weather history database for the weather conditions in past years. The results will help you decide how hot, cold, wet, or windy it might be!

Date:

Astronomy

Sep. 24, 2012 Rise Set
Actual Time 6:37 AM CDT 6:41 PM CDT
Civil Twilight 6:13 AM CDT 7:05 PM CDT
Nautical Twilight 5:45 AM CDT 7:33 PM CDT
Astronomical Twilight 5:17 AM CDT 8:01 PM CDT
Moon 3:09 PM CDT (9/24) 1:13 AM CDT (9/24)
Length of Visible Light 12h 51m
Length of Day
12h 03m
Waxing Gibbous, 71% of the Moon is Illuminated
Sep 24
Waxing Gibbous
Sep 29
Full
Oct 8
Last Quarter
Oct 15
New
Oct 21
First Quarter

Hourly Weather History & Observations

Time (CDT) Temp. Heat Index Dew Point Humidity Pressure Visibility Wind Dir Wind Speed Gust Speed Precip Events Conditions
12:56 AM 66.9 °F - 64.0 °F 90% 30.09 in 10.0 mi North 3.5 mph - 0.00 in   Clear
1:56 AM 64.9 °F - 63.0 °F 93% 30.09 in 10.0 mi Calm Calm - N/A   Clear
2:56 AM 64.9 °F - 63.0 °F 93% 30.09 in 10.0 mi NW 4.6 mph - N/A   Clear
3:56 AM 66.0 °F - 62.1 °F 87% 30.08 in 10.0 mi North 3.5 mph - N/A   Clear
4:56 AM 66.0 °F - 61.0 °F 84% 30.09 in 10.0 mi Calm Calm - N/A   Clear
5:56 AM 66.0 °F - 61.0 °F 84% 30.10 in 10.0 mi Calm Calm - N/A   Clear
6:07 AM 66.2 °F - 60.8 °F 83% 30.15 in 10.0 mi Calm Calm - N/A   Clear
6:56 AM 64.0 °F - 60.1 °F 87% 30.12 in 10.0 mi North 3.5 mph - N/A   Partly Cloudy
7:56 AM 68.0 °F - 59.0 °F 73% 30.13 in 10.0 mi NNE 6.9 mph - N/A   Partly Cloudy
8:56 AM 71.1 °F - 55.9 °F 59% 30.14 in 10.0 mi ENE 5.8 mph - N/A   Partly Cloudy
9:56 AM 75.9 °F - 54.0 °F 46% 30.15 in 10.0 mi Variable 4.6 mph - N/A   Clear
10:56 AM 79.0 °F - 55.0 °F 44% 30.14 in 10.0 mi Variable 6.9 mph - N/A   Clear
11:56 AM 81.0 °F 80.8 °F 55.9 °F 42% 30.13 in 10.0 mi Calm Calm - N/A   Partly Cloudy
12:56 PM 82.4 °F 82.0 °F 57.2 °F 42% 30.12 in 6.0 mi North 5.8 mph - N/A   Smoke
1:56 PM 84.0 °F 84.0 °F 60.1 °F 44% 30.09 in 10.0 mi NNW 4.6 mph - N/A   Partly Cloudy
2:56 PM 84.0 °F 83.8 °F 59.0 °F 43% 30.07 in 10.0 mi Variable 6.9 mph - N/A   Scattered Clouds
3:56 PM 84.0 °F 83.5 °F 57.9 °F 41% 30.05 in 10.0 mi NNW 6.9 mph - N/A   Scattered Clouds
4:56 PM 82.9 °F 82.4 °F 57.0 °F 41% 30.04 in 10.0 mi Variable 3.5 mph - N/A   Scattered Clouds
5:56 PM 79.0 °F - 62.1 °F 56% 30.06 in 10.0 mi Calm Calm - N/A   Scattered Clouds
6:56 PM 73.9 °F - 57.0 °F 55% 30.05 in 10.0 mi NNE 4.6 mph - N/A   Partly Cloudy
7:56 PM 66.9 °F - 57.9 °F 73% 30.07 in 10.0 mi North 6.9 mph - N/A   Clear
8:56 PM 63.0 °F - 57.0 °F 81% 30.09 in 10.0 mi North 5.8 mph - N/A   Clear
9:56 PM 64.0 °F - 55.9 °F 75% 30.09 in 10.0 mi North 3.5 mph - N/A   Clear
10:56 PM 63.0 °F - 54.0 °F 72% 30.10 in 10.0 mi North 3.5 mph - N/A   Clear
11:56 PM 61.0 °F - 55.0 °F 81% 30.09 in 10.0 mi North 3.5 mph - N/A   Clear